Back to catalog

SINAH 1

AliveScienceSSO
NORAD 28893·PAYLOAD·🇮🇷 Iran

Launched Oct 27, 2005 from Plesetsk Cosmodrome

Loading…

Next Passes (next 24 hours)

TLE

FreshSource: Space-Track

Epoch: Sep 14, 2026, 13:50 UTC

1 28893U 05043D   26257.57694825  .00000214  00000-0  50060-4 0  9992
2 28893  98.2988  32.4882 0014355   1.6921 358.4327 14.64208811113608

Track SINAH 1 in real time with AllMySat

Download on the App Store